Regional Weather Roundup
Issued by NWS

Home | Current Version | Previous Version | Text Only | Print | Product List | Glossary Off
Versions: 1 2 3 4 5 6 7 8 9 10 11 12 13 14 15 16 17 18 19 20 21 22 23 24 25 26 27 28 29 30 31 32 33 34 35 36 37 38 39 40 41 42 43 44 45 46 47 48 49 50

000
ASUS45 KSLC 300710
RWRUT

UTAH REGIONAL WEATHER ROUNDUP
NATIONAL WEATHER SERVICE SALT LAKE CITY UT
100 AM MDT MON MAY 30 2016

UTZ001>011-023>025-300800-

NORTHERN UTAH

CITY           SKY/WX    TMP DP  RH WIND       PRES   REMARKS
BRIGHAM CITY     N/A     60  45  58 E7        30.06F
HILL AFB       LGT RAIN  55  48  76 E18       30.09F
LOGAN          CLOUDY    55  49  80 S7        30.08R
OGDEN          LGT RAIN  58  48  69 SE12      30.07F
PROVO AIRPORT  MOCLDY    61  45  55 N9        30.08R
SALT LAKE CITY CLOUDY    61  47  59 N12       30.09S
VERNAL         CLOUDY    52  39  61 W5        30.10S
WENDOVER       CLOUDY    61  48  63 SE7       30.08S
HEBER CITY     MOCLDY    45  43  93 CALM      30.14R
WEST JORDAN    CLEAR     55  48  76 NW10      30.12R

$$

UTZ012>022-026-027-300800-

SOUTHERN/CENTRAL UTAH

CITY           SKY/WX    TMP DP  RH WIND       PRES   REMARKS
BLANDING       PTCLDY    58  28  31 N9        30.13S
BRYCE CANYON   PTCLDY    41  30  65 W8        30.21F
CEDAR CITY     PTCLDY    52  34  50 CALM      30.09R
DELTA          MOCLDY    55  39  54 NW6       30.06S
HANKSVILLE     PTCLDY    59  30  33 NE3       30.04F
MILFORD        MOCLDY    54  36  50 SW5       30.05S
MOAB/CYNLANDS  CLEAR     61  33  35 W5        30.00F
PRICE          MOCLDY    56  32  40 W5        30.07F
ST GEORGE      PTSUNNY   79  28  15 N5        29.94S
KANAB          PTCLDY    64  34  32 N10       30.08S

$$

REGIONAL REPORTS     COLORADO/ARIZONA

CITY           SKY/WX    TMP DP  RH WIND       PRES   REMARKS
CRAIG, CO      CLEAR     44  38  79 E5        30.15F
GRAND JUNCTION CLOUDY    55  37  50 E5        30.04F
RIFLE          CLEAR     52  36  54 SE7       30.12F
MONTROSE       CLOUDY    51  34  52 SE6       30.13S
CORTEZ         CLEAR     44  29  55 NE5       30.09S
PAGE, AZ       MOCLDY    74  22  14 W6        29.97R
GRAND CANYON   PTCLDY    41  16  36 CALM      30.18S
KINGMAN        CLEAR     60  21  22 SE6       29.99S
FLAGSTAFF      CLEAR     39  18  42 CALM      30.19F

$$

REGIONAL REPORTS    NEVADA/IDAHO/WYOMING

CITY           SKY/WX    TMP DP  RH WIND       PRES   REMARKS
LAS VEGAS, NV  CLEAR     81  17   9 S8        29.85S
ELY            CLOUDY    57  35  43 W8        30.14F
ELKO           CLEAR     57  41  55 NE5       30.07R
POCATELLO, ID  CLOUDY    53  43  68 W9        30.05R
BURLEY         MOCLDY    57  45  64 SW10      30.01R
EVANSTON, WY   CLOUDY    46  42  86 N17       30.23R
ROCK SPRINGS   CLOUDY    49  36  61 NW12      30.18R
KEMMERER       LGT RAIN  45  41  87 SW17      30.23S

$$



USA.gov is the U.S. government's official web portal to all federal, state and local government web resources and services.